Theta_e
285 284 284 284 283 283 282 282 282 282 281 281 281 281 281 281 280 280 280 279 279 279 279 279 278 278 278 278 277 277 276 276 276 276 275 275 275 274 273 273 273 273 273 273 274 273 273 273 272 273 273 273 273 273 273 273 273 274 274 274 273 272 272 271 269 270 272 273 274 274 273 274 272 273 272 273 273 274 275 274 274 274 274 274 274
285 284 284 284 283 283 282 282 282 281 281 280 280 280 280 280 280 280 279 279 279 279 279 279 278 278 277 277 276 276 276 276 275 275 275 275 274 275 273 273 272 272 272 272 272 274 272 272 272 272 272 272 272 272 272 272 272 272 272 272 272 272 272 271 270 270 270 272 272 273 272 273 271 273 272 272 272 273 273 273 274 274 274 274 274
284 284 283 283 283 282 282 282 281 281 280 280 280 280 280 280 280 280 279 279 279 279 279 278 278 277 277 276 276 275 275 275 275 274 274 275 274 273 273 272 272 271 272 272 272 272 272 272 271 272 272 271 271 272 272 272 272 271 271 272 271 271 272 272 270 269 269 270 271 271 271 272 271 271 272 272 273 273 272 273 273 274 275 274 274
283 283 283 282 282 282 282 281 281 280 280 280 280 280 280 279 280 280 279 279 278 278 278 278 277 277 276 276 275 275 275 275 274 274 274 273 273 273 272 272 271 271 271 271 271 271 271 271 271 270 270 270 270 270 271 271 271 271 271 271 271 271 271 271 271 270 269 268 270 270 271 271 271 272 272 273 272 272 273 273 274 274 274 275 274
283 283 282 282 281 281 281 281 280 280 280 280 279 279 279 279 279 279 278 278 278 278 278 277 276 276 276 275 275 276 276 275 274 273 273 272 272 272 272 271 271 271 271 271 274 271 271 271 271 270 269 269 269 269 269 269 270 270 270 271 271 271 272 272 271 271 269 268 269 270 271 271 271 271 272 271 272 272 273 273 273 274 274 275 275
283 282 282 282 281 281 281 280 280 280 280 279 279 279 279 279 279 279 279 279 278 279 278 277 276 276 276 276 276 276 275 275 274 273 272 271 271 271 271 271 271 271 271 272 272 271 271 270 270 270 269 269 269 268 269 269 269 269 269 270 270 271 271 271 271 270 270 269 269 269 270 270 270 271 271 272 271 271 272 273 274 274 274 275 275
282 282 282 282 281 281 281 281 281 280 280 280 280 279 279 279 279 279 279 279 278 278 277 277 277 276 276 276 276 276 275 274 273 272 271 271 271 271 271 271 271 271 271 271 271 271 271 271 270 270 270 270 269 269 269 268 269 269 269 269 270 269 269 269 270 270 270 270 270 270 269 270 271 270 272 273 273 273 272 272 273 275 275 275 275
282 282 282 281 281 282 282 281 281 281 280 280 279 279 279 279 279 279 279 278 278 278 277 277 277 276 276 276 276 275 275 274 273 272 271 271 271 270 271 271 271 271 271 271 271 271 271 271 271 271 271 271 270 270 269 269 269 269 270 270 269 269 268 268 269 269 269 269 269 269 269 269 270 272 273 273 272 273 274 273 272 273 274 275 275
282 282 281 281 282 282 281 281 281 280 280 279 279 279 280 280 279 279 278 278 278 278 277 277 276 276 276 275 275 274 274 274 273 272 271 271 271 271 271 271 272 272 271 271 271 271 270 270 271 271 272 275 277 276 275 274 270 269 269 270 269 269 268 267 267 268 267 268 268 270 270 270 271 271 271 272 272 272 274 274 273 274 274 274 275
282 281 281 281 281 281 281 281 280 280 280 279 279 280 280 279 279 278 278 278 278 277 277 277 276 276 275 275 274 274 274 273 275 278 276 272 271 272 272 271 272 272 271 271 270 271 271 270 271 276 277 277 278 278 279 279 279 274 270 269 268 267 265 263 265 265 266 266 267 269 270 270 271 272 272 273 274 275 274 273 272 273 274 273 274
282 281 281 281 281 281 281 280 280 280 280 280 280 280 279 279 278 278 278 277 277 277 276 276 276 276 275 275 274 274 274 273 278 280 280 279 273 272 272 271 271 271 271 271 270 271 270 270 270 273 275 277 276 278 278 279 278 278 278 277 275 270 265 265 265 266 265 268 270 271 271 271 272 273 274 274 274 273 273 273 273 273 271 270 268
281 281 281 281 281 280 280 280 279 280 280 280 280 280 279 278 278 278 277 277 276 276 276 276 276 275 275 274 274 273 272 276 280 281 281 281 278 272 271 271 271 271 271 270 270 270 270 270 271 271 271 270 270 270 274 277 277 278 278 278 278 278 277 271 268 268 271 271 271 272 272 272 273 274 273 273 272 273 274 273 273 271 270 269 269
282 282 282 281 281 280 280 279 279 279 279 279 279 279 279 278 278 277 277 277 276 275 276 276 275 274 274 273 273 272 271 277 281 282 282 282 281 276 270 271 270 270 271 271 270 270 270 270 270 271 271 275 274 271 269 270 275 276 276 277 277 277 277 278 278 276 275 273 272 272 273 273 273 273 274 273 274 273 273 272 271 270 270 269 269
282 282 281 281 280 280 280 280 279 279 280 280 279 278 278 278 278 278 277 276 276 276 275 275 275 274 273 273 272 271 270 276 281 282 283 283 283 279 270 271 271 270 271 271 271 270 270 270 269 270 270 270 271 270 269 268 268 269 269 269 269 272 276 277 277 277 277 275 274 273 275 275 273 273 274 275 274 272 271 270 270 269 268 268 269
282 282 281 281 280 280 280 280 279 279 280 279 279 278 278 278 278 277 277 276 276 275 275 274 274 273 272 271 270 270 270 276 281 283 283 284 284 282 271 271 271 271 271 271 271 270 270 271 270 270 269 269 269 270 269 268 266 266 266 266 268 269 271 273 274 274 275 276 275 275 275 274 274 274 276 275 274 272 271 270 270 269 268 268 268
282 281 281 280 280 280 280 280 280 279 279 279 278 278 278 278 277 277 276 276 275 275 274 274 273 271 271 269 269 269 270 277 280 283 283 284 284 279 272 272 271 270 270 271 271 271 270 270 270 270 269 269 272 275 274 270 267 265 265 266 268 270 272 275 277 278 276 276 276 275 274 275 277 277 276 274 272 272 272 269 267 266 265 264 264
281 281 281 280 280 280 280 280 280 279 279 278 278 278 278 277 277 276 275 275 274 273 273 272 271 270 269 269 269 270 269 275 280 282 283 284 283 275 272 272 271 270 270 270 271 271 270 270 270 269 269 268 272 275 277 277 270 268 268 268 270 272 273 275 278 279 279 279 278 278 278 278 278 277 276 275 273 272 267 263 261 264 263 262 262
282 281 281 281 280 281 281 280 280 280 279 279 279 279 279 278 277 275 275 274 274 273 272 270 269 269 269 269 269 269 269 272 279 282 283 284 282 275 273 272 271 271 271 271 270 270 270 273 272 270 269 269 273 276 277 276 273 272 272 272 272 272 274 276 275 275 277 277 277 277 276 275 275 273 272 272 273 272 263 260 263 264 262 262 261
282 281 281 281 281 281 281 281 281 280 280 280 279 279 278 277 277 274 274 273 273 270 269 269 268 267 268 269 271 270 269 271 278 281 283 283 282 274 272 271 270 270 270 269 269 269 269 272 274 273 271 271 275 276 277 276 273 273 273 272 272 273 274 275 273 271 270 270 271 270 270 269 267 266 266 270 271 270 267 265 264 262 261 261 262
283 282 281 281 281 281 281 281 281 280 280 280 279 278 277 275 274 273 271 271 270 269 268 268 268 268 267 266 267 269 269 268 271 280 282 283 283 275 272 271 270 269 268 268 266 267 268 268 271 276 278 277 277 277 277 278 275 274 274 273 273 273 275 272 272 272 271 271 269 268 266 265 265 265 265 265 266 266 267 267 265 263 261 261 261
282 281 281 280 280 280 280 281 281 280 280 279 279 277 275 275 272 271 271 270 268 267 267 267 268 268 266 266 266 267 268 268 268 277 281 283 283 281 272 271 271 270 268 267 267 266 267 268 267 273 277 278 279 279 279 279 279 276 276 275 275 275 276 273 272 273 268 267 265 264 262 260 260 261 262 263 264 264 265 267 266 265 263 261 260
281 280 280 280 280 280 280 280 280 280 279 277 276 275 273 273 272 271 270 269 269 269 267 266 267 267 266 265 265 266 267 270 267 272 278 281 283 284 275 272 272 269 267 266 266 266 267 267 267 271 275 277 278 279 280 280 280 278 277 279 279 279 277 269 267 266 264 263 261 260 258 257 257 258 260 261 262 263 264 264 266 265 265 265 263
280 279 279 279 279 279 279 278 278 278 277 276 275 274 272 271 270 270 269 268 269 268 268 267 266 267 267 266 266 266 266 266 272 269 274 278 281 283 283 277 278 272 268 268 267 267 267 267 268 272 275 276 278 279 279 279 279 278 280 279 279 279 276 266 266 263 263 261 260 258 258 256 256 258 259 260 262 262 264 264 264 265 265 265 266
278 278 278 278 278 278 277 277 277 276 276 275 274 274 272 271 270 270 269 269 268 268 268 267 266 267 267 268 267 267 266 265 268 273 272 275 279 281 283 283 281 274 270 269 268 267 267 267 268 273 275 276 278 278 279 279 278 279 279 280 278 277 267 265 263 262 261 260 258 257 258 257 257 258 259 261 262 262 263 264 264 264 264 264 265
277 277 277 277 277 276 274 275 275 274 274 274 274 274 272 270 270 268 268 268 268 269 269 268 267 268 268 269 270 269 267 265 265 268 273 275 276 278 280 282 283 282 276 272 271 269 271 273 273 274 275 276 277 278 278 278 279 279 279 278 277 267 264 263 263 261 260 259 258 257 258 259 260 261 262 262 262 262 262 262 262 262 262 263 263
276 276 275 275 274 273 273 272 273 274 274 274 275 275 274 271 272 270 268 269 269 269 270 269 268 268 268 269 270 270 267 265 265 264 267 270 273 276 278 279 280 281 281 277 276 276 276 275 276 276 276 276 275 275 274 275 277 278 278 277 269 264 263 262 260 259 260 259 258 258 259 259 260 262 262 262 260 259 259 259 260 260 261 261 261
275 272 273 272 269 271 273 273 272 271 270 272 272 273 273 272 271 270 269 269 269 269 270 269 269 268 268 269 270 269 266 264 264 263 263 264 265 268 270 272 276 279 278 279 279 277 276 276 275 276 276 277 277 276 276 275 274 275 271 269 265 263 262 259 259 260 259 257 258 258 259 259 259 259 258 258 258 259 259 260 259 259 260 261 261
274 271 269 269 269 269 271 270 271 270 270 271 272 271 271 271 271 271 270 270 270 270 269 269 269 269 269 269 268 264 267 264 264 263 262 263 264 266 267 269 271 273 275 275 276 277 276 277 277 276 275 275 275 273 272 271 269 268 266 264 262 262 264 265 265 260 260 259 258 257 257 256 257 257 257 256 258 259 259 259 259 259 260 260 260
268 266 266 268 269 267 269 270 270 271 269 268 270 271 272 271 271 271 268 265 269 270 270 270 270 268 266 267 266 267 267 267 266 269 266 269 266 265 266 267 269 271 274 276 275 274 274 273 272 272 272 270 269 268 267 265 264 264 263 262 260 258 257 257 258 259 258 256 257 257 257 255 256 256 256 256 257 258 259 257 259 258 260 258 259
267 267 267 269 268 267 268 268 266 268 269 269 268 265 268 274 272 269 268 272 275 276 275 269 265 263 266 267 266 268 268 267 273 275 275 275 275 275 274 273 273 272 273 276 276 273 272 271 271 271 271 271 270 269 268 266 265 264 262 264 262 259 258 258 258 260 257 257 257 256 256 255 255 255 255 256 257 257 259 262 259 258 258 258 258
268 267 265 267 268 267 266 266 264 264 264 265 263 265 265 266 275 276 275 274 274 276 277 277 277 275 270 267 268 275 275 276 277 277 277 277 277 277 277 277 276 276 276 273 273 273 271 270 270 270 270 270 269 269 269 268 267 265 265 263 262 262 263 261 261 259 258 258 257 256 255 254 256 255 256 256 257 258 257 257 257 257 257 258 258
268 268 266 265 266 266 264 265 263 263 263 262 262 263 263 264 266 272 275 276 277 277 277 277 277 278 278 276 271 265 273 276 277 277 278 278 277 277 278 278 278 278 277 277 271 270 271 270 269 269 269 268 268 268 268 268 267 267 266 264 263 261 261 261 262 260 258 257 257 256 255 255 255 255 255 256 258 257 257 257 256 257 258 258 258
266 264 263 263 264 265 263 263 262 262 262 261 261 261 262 263 265 265 265 272 274 275 277 278 278 278 278 278 279 278 275 274 276 277 277 277 278 277 278 278 279 279 278 275 272 270 269 269 269 269 269 268 268 268 268 267 267 266 265 264 264 263 262 262 263 260 259 258 256 256 256 255 255 256 257 256 256 256 256 256 256 256 257 257 258
262 263 262 262 262 262 262 262 262 261 261 261 261 261 262 262 262 261 260 261 264 268 273 275 276 277 277 278 278 278 278 278 278 277 276 276 277 277 277 276 278 279 278 274 273 272 271 270 270 269 269 269 268 268 267 266 266 265 264 263 263 263 263 261 260 260 259 259 259 257 256 256 255 254 254 253 254 255 255 256 256 256 256 257 257
259 262 264 262 261 261 261 262 261 260 260 260 260 261 261 260 262 260 259 259 260 261 260 261 268 273 273 274 275 276 276 276 277 277 277 277 277 277 278 275 273 274 275 275 274 273 272 272 271 270 270 269 268 267 267 266 265 263 263 262 262 262 261 260 259 259 258 258 257 256 256 256 254 255 255 254 253 254 255 255 255 256 256 257 257
259 261 261 260 259 259 259 259 260 260 259 259 258 259 259 259 260 258 259 259 258 257 256 256 259 266 271 271 272 273 273 274 274 275 275 275 275 275 272 272 272 272 272 273 273 273 272 271 270 269 269 268 268 266 266 265 264 263 263 262 262 261 260 260 259 259 258 257 257 257 258 256 255 254 252 253 253 254 254 255 255 256 257 257 258
260 259 260 258 257 258 258 257 257 259 264 260 258 257 258 259 257 255 255 255 257 256 255 253 257 260 266 265 267 268 270 271 271 272 272 272 272 269 267 267 267 268 268 269 269 269 269 269 268 268 267 267 266 266 265 264 264 263 263 263 262 261 260 260 259 258 258 257 256 256 255 255 254 253 252 253 254 254 254 255 255 257 258 259 259
257 258 257 256 257 256 258 258 259 261 258 257 256 258 256 255 256 256 255 255 257 256 255 256 262 258 259 261 265 263 264 267 268 267 267 267 265 264 264 264 264 264 264 265 266 266 266 267 267 267 267 266 265 265 264 263 263 262 262 261 261 260 261 261 261 260 258 257 256 256 255 254 253 252 253 253 254 253 254 255 254 254 256 258 258
260 265 265 265 263 259 256 256 258 257 256 256 256 256 256 255 255 254 253 252 253 254 256 255 256 258 259 262 261 263 262 260 260 260 261 262 263 263 262 262 262 262 263 263 263 263 264 264 264 265 264 264 264 264 263 263 262 261 261 260 260 259 260 260 259 259 258 257 256 255 254 254 252 251 252 252 253 253 253 253 254 255 256 256 256
259 259 261 263 261 262 258 257 256 256 256 254 254 255 255 255 254 254 254 254 255 256 257 258 259 259 261 261 261 262 260 261 260 260 260 260 260 261 261 260 260 260 260 260 261 261 261 261 262 262 262 263 263 262 262 262 261 261 260 259 258 258 258 258 258 257 257 256 255 254 253 253 253 252 250 251 252 252 253 254 255 257 257 257 257
259 260 261 262 261 258 258 256 255 254 254 255 253 253 254 255 255 256 256 257 258 259 260 259 259 259 260 263 266 266 262 260 259 259 259 258 258 258 258 258 259 258 259 259 259 259 259 259 259 260 260 260 260 260 260 260 260 259 259 258 258 257 257 257 256 256 256 255 255 254 253 252 252 252 252 252 255 255 254 254 254 254 255 256 256
256 256 255 256 258 256 256 256 256 258 256 256 253 254 255 255 255 256 257 257 257 257 256 256 255 254 259 264 264 265 258 255 254 254 253 253 253 254 255 255 256 256 256 256 256 256 256 256 257 257 258 258 259 258 257 257 257 258 258 257 257 256 256 255 255 255 255 254 254 254 253 253 253 253 254 256 252 250 251 251 252 253 254 254 255
256 255 255 256 256 256 256 256 256 255 254 255 256 257 257 255 255 255 255 255 255 254 253 252 251 251 253 260 260 260 253 250 254 251 251 251 250 251 251 252 252 253 252 253 253 253 253 254 254 255 255 256 256 257 257 257 256 255 255 255 255 255 255 255 255 255 254 254 254 253 253 252 254 252 251 251 251 251 250 251 251 251 252 252 253
256 256 256 256 256 255 255 254 254 254 254 256 256 256 255 254 254 252 252 251 252 252 251 251 251 251 250 253 254 251 249 249 249 248 249 251 250 250 249 250 250 251 252 252 252 251 252 252 252 253 252 252 252 252 254 255 255 255 255 255 255 255 255 255 255 255 254 253 253 253 252 252 253 251 251 252 249 250 250 249 251 251 252 252 254
254 255 255 254 254 253 253 253 254 254 255 254 252 251 252 251 251 250 251 250 251 251 251 250 250 249 250 249 248 249 248 248 250 250 250 249 249 250 250 249 249 250 250 251 251 250 250 251 252 250 252 252 252 251 251 251 252 253 255 255 255 255 255 255 255 254 254 252 253 252 251 251 250 249 250 250 250 249 250 249 250 253 253 253 254
254 253 254 253 253 253 252 250 252 250 249 249 247 247 248 247 247 250 250 250 250 250 249 249 248 248 249 248 247 249 248 247 247 248 249 248 248 249 248 247 249 249 249 250 250 249 250 251 250 251 252 252 252 251 250 250 252 253 253 253 255 255 256 255 254 252 252 252 252 251 251 251 250 250 252 250 249 249 249 249 249 251 251 253 254
251 252 252 252 251 251 251 251 248 248 247 248 248 248 248 248 248 249 251 250 249 250 248 246 246 246 247 246 247 247 248 247 248 247 248 249 246 248 248 247 249 249 249 249 247 250 249 250 249 250 250 251 250 251 251 251 251 252 252 253 253 254 254 253 253 252 252 252 251 249 250 251 251 250 252 253 251 250 251 251 250 251 251 252 253
250 250 250 250 249 249 248 247 249 252 248 249 248 249 249 248 248 248 247 247 247 247 247 246 245 245 246 247 247 247 247 248 247 248 248 249 247 247 247 245 248 248 248 249 248 249 249 248 249 249 250 250 250 250 251 252 252 252 252 252 252 253 253 254 252 252 251 251 250 250 250 250 249 249 250 250 249 249 250 250 251 251 252 253 255
248 248 248 249 248 248 248 248 250 248 247 248 248 248 248 247 247 246 246 246 246 247 245 246 246 245 245 247 247 247 247 248 247 247 248 248 247 247 248 248 247 249 248 249 250 249 249 249 249 249 249 249 249 250 251 252 252 252 252 252 253 254 254 254 254 252 253 252 250 250 248 249 249 249 250 250 250 250 250 250 250 252 253 254 255
248 248 248 248 249 248 248 246 245 243 246 247 246 246 246 247 246 247 246 246 245 246 245 245 246 246 246 247 247 248 247 248 248 248 248 248 248 247 249 248 248 248 247 248 249 249 248 246 248 248 248 248 248 249 249 250 251 252 252 252 254 255 254 254 254 254 254 250 251 249 249 249 249 248 249 249 249 249 250 251 252 253 253 253 254
249 248 248 248 247 248 247 247 247 245 244 245 245 245 246 246 247 246 246 246 246 247 246 247 246 245 246 247 247 248 248 247 248 248 248 248 248 248 248 248 249 247 248 248 248 249 248 247 247 248 247 249 249 249 249 250 251 251 253 254 254 255 255 255 254 254 255 254 250 250 250 249 248 248 249 249 248 248 250 252 252 252 253 253 254
Wind_Speed
11 11 10 10 11 12 11 9 10 9 9 9 10 10 9 9 9 9 8 8 8 8 8 8 8 8 8 7 7 6 6 6 5 6 6 6 5 5 5 5 5 4 4 3 2 3 3 4 3 2 3 4 4 3 3 3 3 4 4 3 2 1 2 1 3 9 7 2 1 3 4 5 5 4 9 8 9 9 8 7 8 8 9 8 9
12 11 10 10 12 12 11 9 9 9 10 9 9 10 9 9 9 8 9 8 8 9 9 7 7 8 7 6 6 5 5 6 6 6 7 7 5 5 6 6 5 4 4 4 3 3 3 4 3 3 3 4 3 3 3 3 3 3 2 4 2 0 0 3 3 4 11 3 5 3 3 4 8 4 7 12 12 9 10 9 8 7 8 8 8
10 10 11 11 12 10 10 10 10 11 11 10 10 10 9 9 8 10 9 8 6 7 8 8 8 7 7 6 6 6 6 6 5 6 6 7 7 5 5 5 5 5 4 4 4 3 3 3 3 3 3 3 3 3 3 3 3 3 2 2 2 1 1 1 1 4 6 9 2 6 5 6 5 9 8 7 8 9 11 10 9 8 7 9 9
11 11 11 11 11 11 11 11 12 12 12 10 12 10 10 9 9 9 9 8 9 7 7 8 8 8 7 7 6 6 6 6 6 5 6 6 6 6 5 5 4 4 4 4 4 3 4 4 4 4 3 3 3 3 2 3 3 3 3 2 2 2 2 1 2 2 3 8 5 5 7 8 7 5 7 8 7 9 9 10 8 9 9 8 8
11 11 12 13 12 12 12 12 13 13 12 11 12 11 10 10 9 9 9 9 8 8 7 7 8 8 8 9 8 8 8 8 7 6 4 4 6 6 5 5 4 4 4 4 4 4 4 4 4 4 3 3 2 2 2 3 3 4 3 3 3 3 2 2 3 3 5 7 10 5 5 6 6 7 7 9 10 9 8 10 10 9 10 7 7
12 12 12 14 13 13 13 12 13 14 13 11 12 11 11 10 10 8 9 11 9 8 10 8 8 9 8 8 8 8 8 7 8 7 6 5 5 5 5 5 5 4 4 4 4 4 4 4 4 4 4 4 3 3 3 4 3 4 4 4 4 3 3 3 4 4 5 6 6 9 4 6 8 5 4 7 10 12 13 11 8 6 9 10 8
12 13 13 14 13 14 14 14 13 13 12 11 10 10 11 10 10 11 9 10 11 10 9 9 8 8 8 7 8 9 8 7 7 6 5 5 6 5 5 5 4 4 4 4 4 4 4 4 4 4 4 4 4 4 4 4 5 5 5 5 4 4 4 5 4 5 5 5 6 6 7 5 5 10 8 6 9 7 10 14 15 9 7 9 13
13 13 13 13 14 15 14 13 13 12 10 10 11 11 10 11 11 9 9 10 10 10 11 10 8 7 7 7 7 6 7 6 6 6 6 6 6 5 6 6 5 4 4 4 4 4 4 4 3 4 4 4 5 4 4 5 4 5 5 4 4 5 5 5 5 5 5 5 6 7 6 7 8 7 7 7 10 10 6 10 14 14 15 13 10
14 14 13 14 15 13 11 10 9 10 11 11 11 11 11 10 10 9 9 9 8 9 9 9 9 8 6 6 6 6 7 7 7 8 8 7 6 7 6 6 6 6 5 5 4 4 3 3 3 3 4 6 9 7 7 7 5 5 4 5 5 6 4 4 5 4 4 4 6 5 7 7 7 9 10 9 10 12 13 12 13 14 13 14 13
14 14 15 14 12 11 11 10 11 11 11 12 12 11 11 11 10 10 10 9 9 8 8 8 8 9 9 8 7 6 6 5 7 13 10 8 7 6 6 6 6 6 6 5 4 4 4 4 3 6 8 8 9 10 11 12 11 8 6 6 5 5 5 5 6 4 4 4 4 6 7 8 9 9 10 10 10 11 13 13 15 14 13 14 13
13 14 14 12 11 11 11 12 11 13 13 11 10 11 12 10 9 9 9 9 9 9 8 9 9 8 9 9 9 7 6 6 12 15 15 14 8 7 7 6 6 6 5 6 6 5 4 4 4 5 5 6 5 9 10 10 10 12 10 10 9 8 6 6 5 5 4 5 5 5 7 10 9 8 10 11 11 11 12 12 13 13 12 14 16
14 13 13 11 11 13 12 12 12 12 12 12 11 10 9 9 10 10 9 9 8 7 9 9 8 8 7 8 8 8 7 9 16 16 16 16 12 8 6 6 6 6 6 6 5 5 5 5 4 4 4 4 4 4 6 10 11 11 11 11 12 12 10 8 6 4 4 5 6 6 8 10 10 9 10 11 12 13 12 12 12 13 13 13 12
13 12 12 12 12 12 11 12 12 11 12 11 10 10 10 10 10 11 12 9 7 9 10 9 10 8 8 9 9 8 7 12 17 17 16 16 16 11 6 6 7 6 6 6 6 6 5 6 5 5 5 9 6 5 5 4 8 11 12 12 12 12 12 13 11 7 5 6 7 7 8 9 10 9 9 12 13 13 13 12 11 12 12 13 12
11 12 11 11 11 11 11 11 11 11 10 10 10 10 11 12 11 9 8 8 9 9 8 10 9 9 10 10 9 7 8 11 17 17 16 17 17 13 6 7 6 7 7 7 6 7 7 7 6 6 5 5 5 5 4 5 4 4 5 4 4 7 11 12 12 13 11 8 8 8 9 8 9 10 11 11 11 10 10 11 12 12 12 13 14
11 11 12 11 10 10 11 11 11 11 10 10 10 11 11 10 10 10 10 11 11 12 11 11 10 9 9 8 7 8 8 13 17 17 17 17 18 14 6 6 6 6 6 6 7 7 7 7 6 7 5 5 6 6 5 5 4 4 4 5 5 6 7 8 7 7 8 8 8 9 7 5 7 9 9 8 9 8 9 12 11 11 11 12 11
11 9 11 10 11 11 11 11 11 10 10 10 11 11 11 12 12 9 8 7 6 5 5 6 9 9 8 7 7 9 8 15 17 17 17 17 18 9 8 8 7 7 7 7 7 7 7 7 7 7 6 6 9 14 11 7 5 6 7 6 7 7 8 9 13 13 10 8 6 4 6 8 11 10 11 10 7 7 7 6 5 5 8 9 10
12 12 11 10 11 11 12 12 11 11 11 11 11 12 12 12 10 7 9 9 9 9 10 10 8 9 8 8 10 9 8 13 17 18 17 18 14 7 7 7 7 8 8 7 7 7 7 8 8 7 7 8 10 14 15 13 6 8 8 8 8 8 8 8 13 14 12 13 15 16 16 14 12 14 16 16 11 8 4 6 5 4 7 9 10
13 12 12 11 12 12 11 11 11 11 11 13 14 13 10 7 8 8 11 11 11 12 9 7 6 7 9 10 11 11 10 11 18 18 18 19 14 9 8 8 8 8 8 7 7 7 8 13 10 8 9 9 12 15 16 12 8 8 8 9 10 10 8 6 3 3 6 12 15 12 8 10 12 12 11 12 12 8 3 5 6 4 6 5 9
13 13 12 10 9 10 10 10 11 12 13 13 12 12 11 11 8 7 8 7 8 5 6 7 7 6 8 9 8 10 9 10 16 18 19 20 14 8 8 8 8 9 8 8 7 7 8 11 18 14 11 11 16 16 17 14 8 8 9 9 11 10 8 5 4 3 3 3 2 1 4 6 4 3 5 10 10 8 5 5 4 4 6 6 7
10 8 8 9 9 9 9 11 11 11 13 11 9 9 6 6 8 9 8 7 7 6 6 6 8 9 7 7 8 10 10 9 10 19 19 20 19 9 8 8 11 11 9 8 7 7 8 8 12 19 21 19 17 18 18 18 11 8 9 10 9 9 3 4 4 5 2 4 3 2 3 3 3 3 4 5 6 5 6 5 4 4 5 7 6
8 8 8 7 8 9 8 10 12 11 10 10 8 6 6 8 6 7 8 7 6 6 7 7 7 8 6 7 7 9 9 9 10 17 19 20 21 15 9 12 11 9 8 8 8 9 8 9 7 14 19 20 19 19 19 19 17 11 10 10 9 6 5 6 3 3 3 2 2 2 2 2 3 3 3 4 4 5 5 6 5 5 6 6 8
7 7 8 8 8 9 9 8 8 9 7 7 8 8 6 6 7 7 6 6 8 8 6 6 7 8 6 6 8 10 8 10 8 13 18 20 21 22 11 12 11 8 8 8 8 9 9 7 7 11 18 19 20 20 21 19 20 12 11 17 18 17 9 3 4 3 2 1 1 2 3 3 3 4 4 5 5 6 4 4 6 6 6 7 7
7 7 7 8 8 8 8 9 9 7 8 9 9 9 7 7 6 7 7 7 8 9 8 8 7 8 8 8 8 9 9 9 15 12 17 20 22 23 22 12 16 10 10 12 11 9 5 6 6 12 16 18 19 20 19 20 17 13 19 19 18 16 8 4 4 3 2 2 2 5 5 4 4 4 4 5 5 4 4 5 6 6 7 7 9
6 7 7 7 7 7 8 8 8 7 8 8 8 8 8 8 7 8 8 8 8 9 8 7 7 9 11 11 9 10 9 8 12 18 15 20 21 22 23 23 19 12 10 10 7 5 5 6 6 13 16 18 20 19 18 18 13 19 19 19 14 11 2 4 1 2 1 3 4 5 6 5 3 4 5 5 5 4 5 7 7 7 7 7 9
7 7 7 7 8 7 6 7 7 7 7 9 9 9 7 7 8 6 7 7 8 9 10 8 10 11 10 11 12 10 8 8 9 12 17 17 19 20 22 24 25 23 12 9 8 6 9 12 14 15 17 18 20 19 17 19 22 20 21 17 12 3 3 3 4 2 5 7 6 6 6 6 5 5 5 4 5 4 4 6 6 7 7 8 9
7 7 7 6 7 6 7 6 6 7 7 8 9 9 10 10 10 8 8 9 9 10 11 8 9 10 11 12 12 11 5 6 8 6 7 10 12 17 19 20 22 23 23 11 14 17 18 17 18 18 17 16 12 9 8 8 16 20 17 13 3 5 4 4 3 5 7 6 6 6 6 4 4 5 4 4 4 5 4 5 6 7 6 7 8
6 5 6 5 4 6 7 7 6 5 5 5 6 6 7 7 8 8 9 9 9 10 10 9 10 9 11 12 11 7 4 5 5 4 5 6 7 7 8 11 16 18 15 14 13 11 14 15 11 14 12 17 17 15 14 10 10 10 5 2 4 4 5 5 6 7 7 5 6 5 5 4 3 3 3 4 6 5 3 5 6 7 6 6 7
7 6 6 5 6 6 7 7 8 7 7 7 7 7 7 7 9 11 12 12 11 11 10 9 10 11 10 9 7 6 8 6 6 6 6 6 7 8 9 10 11 10 11 9 7 8 7 10 13 10 9 9 10 8 7 6 7 6 5 4 4 3 5 5 5 4 4 4 4 3 3 3 4 4 3 4 6 6 4 5 5 7 5 6 7
4 5 5 6 7 6 7 8 8 8 7 7 8 8 9 9 9 8 3 3 7 8 8 8 8 6 7 7 7 8 8 9 6 7 10 12 11 9 9 10 10 10 12 12 7 6 6 6 5 6 6 7 6 6 5 5 4 4 5 4 4 3 3 3 5 6 6 4 5 5 6 4 5 3 3 5 6 6 4 5 5 6 5 3 7
4 4 4 4 4 5 5 6 5 6 6 7 6 5 4 5 6 6 5 2 7 10 8 8 5 4 6 7 6 9 11 6 4 13 16 17 20 20 17 16 16 13 12 17 12 8 9 8 9 9 9 8 9 8 7 6 6 5 5 5 5 5 5 5 5 6 5 6 5 5 6 5 5 5 4 5 6 6 5 6 5 4 5 5 7
3 3 3 4 4 4 3 3 2 3 2 3 3 4 4 3 5 7 7 7 8 9 11 12 12 10 8 7 7 14 16 16 16 14 15 16 17 18 19 19 20 19 18 11 11 11 9 9 9 8 9 8 9 10 8 8 8 7 7 6 6 6 6 5 6 7 7 6 6 6 5 4 6 4 5 5 6 7 6 5 4 5 5 6 7
2 2 1 0 0 1 1 1 1 2 1 1 2 2 2 4 6 4 5 9 10 11 12 13 13 14 16 13 8 5 11 14 15 15 16 16 16 16 17 19 20 19 18 18 10 10 8 9 8 9 8 9 10 8 8 8 8 8 8 7 7 6 6 7 7 6 6 6 6 6 6 5 5 5 5 5 7 6 6 6 5 5 5 5 6
0 0 1 1 1 1 1 1 1 2 2 2 1 1 3 4 5 6 4 4 5 9 12 12 13 14 15 16 17 13 9 11 13 14 15 15 16 16 17 19 18 18 18 13 10 9 8 9 10 9 8 9 8 8 8 8 9 9 8 9 8 8 8 8 5 6 6 7 6 5 5 5 5 6 6 6 6 6 6 6 6 5 5 6 7
3 2 1 1 1 1 1 1 1 1 1 2 2 3 2 3 4 2 3 7 6 4 4 6 9 12 14 15 15 14 15 15 14 13 12 12 14 16 16 12 16 18 16 10 9 9 8 8 9 9 8 8 8 8 8 9 8 8 7 7 7 6 6 4 5 6 6 6 6 5 4 5 5 5 5 5 6 6 6 7 6 6 6 6 7
5 6 7 4 2 1 1 1 1 1 1 1 2 2 2 1 1 1 2 2 3 4 5 6 8 9 6 6 8 9 9 9 9 10 10 11 14 16 15 9 8 7 9 8 7 7 8 9 8 8 9 9 9 9 10 9 8 8 8 8 7 6 5 6 6 6 6 5 5 5 6 6 5 6 5 6 5 6 6 6 6 6 6 6 6
5 4 4 4 4 3 2 1 1 2 2 1 1 1 1 1 2 1 1 0 1 1 3 2 2 6 7 7 10 10 12 12 12 11 11 12 13 13 5 4 4 4 4 5 6 7 6 6 5 4 5 6 5 6 7 7 7 8 7 7 7 7 6 6 6 6 6 6 6 6 5 5 6 6 5 6 5 7 6 6 6 6 6 6 5
5 5 4 4 4 4 4 4 4 3 3 3 3 2 2 2 3 1 1 0 0 0 0 2 4 6 4 4 8 10 11 10 10 10 11 11 12 7 4 4 4 5 5 5 5 6 6 6 5 4 3 4 4 5 5 6 6 6 6 7 6 6 7 7 7 6 6 6 6 6 5 6 5 5 5 5 6 6 6 6 6 7 8 8 9
5 5 4 4 5 4 5 4 4 5 4 3 4 4 3 3 2 1 2 1 1 1 0 1 2 1 3 5 7 4 7 9 9 8 9 10 8 5 5 4 4 4 5 5 5 6 6 6 6 5 5 4 5 4 5 6 6 6 7 6 6 6 7 6 6 6 6 6 5 6 5 5 5 5 5 5 6 6 6 7 6 6 7 9 6
5 7 8 7 6 5 4 4 4 4 4 4 3 4 5 3 2 2 2 2 1 1 2 1 1 1 2 3 4 4 5 5 5 4 4 4 3 4 4 4 4 5 5 5 6 6 6 7 6 6 5 5 5 4 4 5 4 4 4 4 4 4 5 4 5 6 5 6 6 5 5 5 5 6 5 5 6 6 6 6 6 6 7 7 6
6 4 5 6 5 4 5 5 3 3 4 4 2 3 3 3 2 2 2 2 1 1 0 1 1 2 3 3 3 3 3 3 3 4 4 4 4 4 4 4 4 4 5 5 5 5 6 6 6 6 6 6 5 5 5 4 4 4 3 4 4 5 6 5 6 6 6 6 6 5 5 5 5 5 4 6 6 5 6 7 6 6 5 6 7
5 5 4 5 5 4 4 5 4 3 3 4 3 4 3 3 2 3 2 2 2 1 1 2 2 3 4 5 9 8 4 4 4 4 4 3 4 4 4 4 5 5 5 5 5 6 6 6 6 6 7 7 6 6 5 5 4 4 4 4 5 5 5 5 5 6 6 5 5 5 5 5 5 5 5 5 5 6 6 5 5 5 7 6 7
5 5 4 3 4 3 4 5 5 4 4 4 2 3 4 4 2 2 2 2 2 2 2 2 3 3 6 9 7 9 5 2 3 3 3 3 3 4 4 4 4 4 4 5 5 6 6 6 6 6 6 7 7 6 5 5 5 5 5 4 5 4 4 5 5 5 4 4 4 5 4 5 5 5 6 5 6 6 5 5 6 6 5 5 6
5 4 3 4 4 3 4 3 3 4 3 4 3 3 4 3 3 3 3 3 2 2 1 1 3 3 4 7 7 8 4 3 3 2 2 2 3 4 4 4 5 5 5 5 5 5 5 5 5 6 5 6 5 5 6 5 5 5 4 4 4 5 5 5 4 5 4 4 5 4 4 5 5 5 5 4 4 5 6 5 5 5 6 6 6
4 5 6 5 5 3 4 3 3 3 3 3 3 4 4 3 3 3 2 1 1 1 0 1 1 2 3 5 5 5 3 4 3 3 2 4 3 4 5 6 6 5 6 6 6 6 5 6 6 6 6 6 6 4 5 5 4 4 5 5 5 6 5 5 5 5 5 5 4 5 5 4 5 5 5 6 4 5 5 5 5 5 5 5 6
4 5 4 5 3 5 4 3 3 3 4 5 3 3 4 2 2 1 1 0 1 1 1 1 1 1 4 4 4 4 5 4 5 6 5 6 5 6 6 6 5 6 6 6 6 5 5 6 6 6 6 6 6 6 6 5 4 5 5 5 5 6 6 6 6 4 4 4 4 5 4 5 5 5 5 5 4 5 6 5 5 5 5 5 5
4 4 5 4 4 5 5 3 4 2 3 2 3 2 2 1 1 0 1 0 0 0 1 1 1 1 3 4 3 5 5 4 5 4 6 5 5 6 6 6 6 5 6 6 6 5 6 6 5 6 7 7 7 6 6 5 5 5 4 4 5 6 5 3 2 3 4 4 5 4 5 4 4 5 6 5 5 5 6 5 5 5 5 6 6
4 5 4 5 4 5 4 4 2 2 2 2 1 1 1 0 0 0 0 1 0 2 1 2 2 3 3 3 4 5 5 3 5 4 5 5 4 6 6 5 6 6 6 6 4 6 6 6 5 6 6 7 6 6 6 5 4 5 3 4 5 5 4 3 4 4 4 4 5 3 5 5 5 4 6 5 5 5 4 5 5 5 6 6 6
5 5 4 4 3 3 1 2 2 2 2 1 0 0 0 0 0 1 1 1 1 2 2 2 3 3 4 5 4 5 4 5 5 6 5 6 5 5 5 4 6 6 5 6 5 5 5 5 6 6 6 6 6 6 6 5 5 4 4 4 4 5 5 5 4 4 4 4 4 5 5 5 5 5 5 5 5 5 6 6 5 5 6 6 7
3 4 3 3 2 2 2 1 2 1 0 0 0 0 1 1 1 1 1 2 2 2 3 4 4 4 4 5 5 5 5 6 5 5 5 5 5 5 6 5 5 6 6 6 6 6 6 6 6 6 7 6 6 6 5 5 5 5 4 5 5 8 8 8 6 5 5 5 4 4 4 5 6 6 6 5 6 6 6 6 5 6 6 6 6
2 2 2 2 2 1 1 1 1 1 1 1 1 1 1 2 2 3 2 2 3 4 4 4 6 5 5 5 6 6 4 5 6 6 5 6 5 5 6 6 6 6 6 6 6 6 6 5 6 6 6 6 6 6 5 5 5 5 4 5 8 9 9 10 10 9 6 4 5 5 6 6 5 5 6 6 6 6 6 7 6 7 6 6 6
2 1 2 1 1 0 0 0 0 1 1 1 1 2 2 3 5 4 3 4 5 6 4 5 5 5 4 6 6 5 6 5 6 5 5 6 5 5 5 6 6 5 5 6 6 6 6 6 6 7 5 6 6 6 5 5 5 5 7 10 11 11 11 10 7 8 10 7 4 5 6 6 6 6 6 6 6 6 8 8 7 7 7 7 6
Wind_Direction
166 167 162 166 161 166 164 161 159 155 154 160 155 158 159 158 160 157 146 158 153 151 152 152 149 139 132 137 143 148 148 149 151 146 134 134 132 132 129 124 127 133 121 106 119 129 131 126 134 144 149 126 145 138 113 114 101 96 110 100 92 109 124 184 243 283 296 178 324 322 336 339 326 338 325 326 323 320 318 309 310 311 310 308 307
171 165 166 163 169 164 163 160 156 155 157 159 160 161 164 163 160 155 159 159 158 157 155 152 142 136 137 146 153 155 158 157 159 149 142 138 139 138 132 131 132 148 138 142 149 149 137 129 152 158 168 144 148 127 132 114 112 102 106 121 144 168 273 149 262 252 291 304 316 313 322 349 317 346 336 327 321 316 313 315 309 303 305 302 301
166 162 162 166 169 164 160 161 159 161 162 164 165 167 166 164 164 161 160 159 164 162 158 150 142 139 144 154 159 164 167 166 163 148 150 149 146 144 143 144 150 157 162 170 162 152 136 153 178 166 166 125 136 137 132 123 133 132 146 143 137 210 234 207 174 276 282 299 331 328 335 331 326 320 323 307 299 302 308 312 312 306 295 295 294
165 164 163 165 164 162 166 163 164 167 169 170 170 170 167 167 167 163 160 160 162 165 155 146 141 149 155 162 169 169 171 170 157 152 155 155 148 149 151 150 155 164 166 172 172 171 171 172 189 165 150 127 151 128 136 136 144 151 153 173 150 193 204 189 258 240 290 297 305 339 320 323 315 307 302 296 293 304 304 301 298 296 294 289 287
167 167 165 164 167 169 170 170 170 172 172 172 173 170 170 166 168 165 160 166 168 157 153 144 149 156 167 173 173 178 179 168 153 150 158 159 150 149 155 154 159 166 174 180 186 177 185 187 192 163 146 132 163 166 178 160 178 160 168 191 181 195 195 204 217 234 261 273 290 297 302 298 294 300 301 309 312 303 298 299 306 303 297 290 290
171 168 169 167 171 174 174 174 176 176 174 174 174 173 169 169 167 168 171 168 166 167 156 160 164 171 174 178 180 180 178 170 155 156 163 159 150 153 155 159 163 167 179 188 188 191 186 191 186 171 161 160 198 199 184 192 180 182 181 200 195 192 203 220 215 227 243 261 274 300 307 306 308 286 280 301 311 316 315 306 294 292 304 311 307
172 172 173 173 173 179 179 180 176 177 177 174 172 172 172 171 170 173 177 173 168 165 166 163 170 172 179 178 185 182 177 165 150 153 163 163 159 160 164 166 171 177 189 190 194 193 187 180 181 175 178 184 188 196 194 197 186 202 200 199 202 193 214 212 219 229 245 272 275 271 292 288 285 305 310 295 288 289 303 314 318 324 312 314 315
175 176 175 178 181 183 182 179 177 177 173 172 176 175 172 174 176 172 170 174 174 172 169 172 169 171 179 185 188 184 172 159 154 160 169 169 164 168 169 173 177 184 185 192 190 191 189 189 184 192 187 200 193 207 189 197 196 207 215 191 200 200 210 220 225 234 243 258 272 290 283 295 296 276 281 299 305 306 310 315 311 320 322 317 312
177 179 181 184 187 182 175 177 174 170 171 174 177 178 178 176 173 173 176 177 176 174 169 165 164 171 178 184 184 187 180 173 168 172 173 175 171 174 176 179 180 183 190 195 201 194 200 196 200 205 208 214 216 211 204 199 186 208 221 188 205 202 215 223 225 232 248 258 277 279 287 289 291 303 310 314 319 317 319 320 311 313 315 312 315
178 182 186 189 182 176 175 173 172 171 174 181 181 178 176 176 176 176 180 180 175 170 167 169 172 177 176 181 187 188 191 180 183 183 180 172 172 172 174 184 184 187 192 203 214 212 207 210 219 220 227 231 236 238 237 231 217 195 192 193 199 201 212 218 229 227 233 252 263 283 292 290 305 298 294 305 313 316 318 320 315 317 317 314 308
184 185 189 186 178 172 173 177 172 178 182 178 179 179 179 177 176 179 180 179 176 171 169 175 181 179 181 182 188 195 193 191 189 190 187 179 168 174 180 186 186 187 197 200 210 214 223 220 220 235 236 241 243 239 236 238 245 248 232 208 195 187 203 220 221 205 214 239 265 270 273 285 297 306 309 315 317 318 316 313 313 317 322 323 318
185 188 187 178 177 178 179 174 177 181 178 183 182 181 176 175 180 181 179 179 179 169 180 185 180 181 183 190 196 199 198 196 195 195 192 187 177 176 180 184 187 194 197 206 211 208 217 222 228 215 222 223 221 238 246 248 248 245 243 244 246 242 226 198 205 223 235 258 269 262 286 294 303 311 314 318 315 313 311 314 317 320 317 313 310
189 186 184 182 182 179 176 178 181 180 185 183 180 177 177 179 184 183 188 183 166 178 186 179 189 185 186 191 201 203 207 203 200 199 194 192 187 176 184 186 190 198 199 205 208 210 210 215 222 224 220 228 227 214 207 232 248 250 251 252 251 247 248 257 260 257 257 260 268 278 282 295 302 308 313 309 308 306 316 317 318 315 310 304 303
192 189 183 185 180 178 179 179 184 185 182 181 178 180 182 190 189 185 176 172 183 183 185 191 188 191 192 195 201 204 207 211 204 201 198 194 193 181 183 189 199 199 202 204 209 211 210 209 213 226 223 219 223 218 216 219 223 243 260 270 267 265 260 261 262 267 270 269 272 275 286 294 297 303 300 302 313 322 324 315 315 309 307 301 304
194 190 187 183 176 177 180 183 186 186 184 180 180 186 189 188 185 188 186 187 184 188 188 190 198 192 195 195 198 206 214 212 210 205 200 198 197 190 177 192 198 206 207 208 213 214 214 214 216 223 220 221 219 216 217 224 221 230 239 246 249 247 244 245 248 251 248 257 268 277 286 293 286 283 296 321 325 322 313 305 312 311 301 298 291
196 191 190 183 180 180 181 186 189 185 182 182 186 190 191 192 192 187 184 189 195 185 201 202 196 196 197 190 196 216 220 213 213 208 204 202 201 187 176 192 201 206 213 214 215 218 214 214 217 224 223 226 227 231 229 209 211 223 233 240 242 244 241 235 240 242 239 235 244 272 283 279 284 301 317 320 324 312 311 320 315 293 299 303 301
198 196 194 184 183 183 186 187 187 185 185 184 190 194 194 196 194 176 184 192 189 197 202 199 197 195 193 195 202 218 219 216 213 211 206 203 200 182 183 191 204 209 221 216 218 217 217 214 216 219 225 230 229 235 238 234 206 214 224 233 238 241 242 234 246 255 259 276 288 289 287 291 304 312 313 315 310 315 348 326 301 311 313 310 306
199 196 194 188 189 186 186 185 187 188 184 193 196 200 198 192 192 181 188 189 198 206 197 196 201 199 198 204 205 208 219 215 214 212 209 206 200 188 189 194 208 215 225 224 216 222 220 217 211 215 222 230 230 235 234 232 231 225 226 239 246 245 241 227 181 220 257 281 283 279 291 304 311 316 315 308 307 314 327 287 287 310 294 293 298
198 196 195 188 183 183 186 187 190 190 195 201 198 196 195 195 184 175 200 199 210 187 183 199 209 212 213 214 210 214 226 219 216 215 211 209 205 184 188 194 208 221 220 227 223 219 229 226 227 225 224 228 231 233 232 229 226 226 231 240 246 244 238 207 208 230 245 219 203 65 315 325 328 298 286 297 301 305 287 272 283 288 288 288 289
193 189 184 181 181 185 187 190 194 194 201 201 196 201 184 162 177 187 196 198 198 189 195 204 212 222 214 215 220 220 225 227 220 220 215 213 209 187 189 188 215 220 217 220 220 231 223 226 230 232 233 230 230 231 232 230 226 227 230 237 239 245 219 192 218 237 193 179 203 210 264 279 276 276 265 265 273 266 274 278 274 275 274 280 280
179 182 175 175 181 187 190 192 196 200 198 197 191 183 179 186 172 178 194 193 189 199 201 211 220 232 218 221 226 234 227 229 228 223 222 217 214 197 196 208 215 214 216 216 221 225 224 221 215 226 230 231 232 231 231 232 232 231 231 234 237 239 227 233 234 198 135 178 191 215 270 270 262 255 257 257 252 249 250 274 270 264 270 273 283
163 164 174 181 185 187 191 196 196 196 184 168 176 191 189 178 185 188 182 184 200 211 210 215 223 237 234 227 231 236 235 232 231 231 229 226 223 215 201 217 207 204 216 224 226 228 225 215 215 218 227 233 236 236 235 236 237 238 241 248 253 255 257 112 138 118 124 179 270 291 275 269 263 266 262 255 252 251 249 254 262 262 258 256 262
160 168 176 181 186 188 189 188 188 183 184 183 184 191 179 182 187 176 181 191 202 212 217 216 221 237 243 238 234 235 232 234 232 229 232 232 231 228 222 213 213 207 209 228 225 229 218 222 220 220 228 233 236 236 238 239 240 240 245 249 252 251 252 116 133 146 194 248 295 283 272 257 254 264 270 270 267 262 270 275 270 266 265 260 260
153 165 178 186 184 189 190 190 189 186 183 177 184 186 185 189 185 189 188 189 198 213 224 213 219 235 239 244 239 233 228 224 234 233 231 234 238 237 235 231 219 208 210 232 231 216 216 217 209 221 229 234 237 238 238 238 234 238 241 243 236 241 118 164 137 204 278 286 274 268 267 255 236 257 257 260 271 275 282 287 284 277 273 276 273
159 175 185 188 192 190 180 186 189 187 183 176 184 193 192 176 190 196 180 197 202 214 223 205 214 227 235 240 244 237 220 219 230 236 238 240 242 245 245 242 239 231 220 227 214 212 216 220 220 225 230 235 238 239 240 238 238 238 240 229 227 102 137 148 209 220 260 258 254 254 258 255 237 245 255 271 280 285 288 285 282 276 269 264 267
172 186 186 187 190 170 179 193 191 192 186 190 196 195 188 187 195 191 188 205 208 213 224 210 220 226 234 241 245 243 215 209 229 224 229 249 252 251 253 255 250 246 244 229 213 217 221 223 225 230 233 235 236 233 238 243 245 248 240 222 146 154 144 170 200 219 245 248 246 247 251 258 255 253 260 274 282 282 282 285 298 298 300 299 302
172 174 181 176 159 169 183 190 191 191 194 198 203 197 189 191 196 194 198 205 212 218 224 218 223 227 233 242 247 257 238 227 222 209 204 220 240 259 272 271 265 258 252 247 237 218 217 217 220 226 227 231 232 232 235 234 238 236 210 201 141 162 170 189 207 223 230 234 243 247 251 252 269 288 285 287 283 276 257 271 280 282 296 296 296
168 177 171 162 173 173 187 180 180 191 198 191 198 206 206 194 197 205 201 204 205 219 219 222 226 227 235 248 261 268 258 240 224 204 200 203 218 224 231 236 236 234 243 241 233 227 217 221 224 225 226 232 233 230 232 209 201 199 199 196 193 180 196 204 212 200 223 214 234 249 274 273 276 267 276 279 273 280 274 269 271 285 285 299 303
146 158 165 159 180 182 185 186 187 190 195 204 216 205 198 197 210 229 236 182 207 216 219 232 233 232 232 237 236 258 262 252 236 190 207 206 209 214 224 227 226 229 231 231 232 238 233 222 216 224 221 219 222 219 203 190 213 210 211 202 204 195 193 189 215 227 225 215 237 241 254 259 270 277 283 285 276 278 274 272 266 264 288 278 281
153 182 178 186 185 180 193 197 195 192 193 204 212 260 273 219 216 213 242 222 212 225 215 228 217 195 223 239 202 228 252 262 219 218 223 223 226 225 227 228 228 228 227 227 223 225 225 225 226 222 225 225 225 224 209 201 210 212 224 220 208 203 207 214 221 233 221 218 228 232 245 242 260 266 274 270 282 277 274 281 285 283 289 294 294
177 185 176 206 196 200 191 197 195 189 192 183 189 215 268 300 259 240 229 219 235 243 242 246 239 214 201 243 239 238 250 262 262 256 251 247 243 243 242 241 237 232 223 214 227 228 224 225 229 225 226 225 230 230 222 214 214 214 218 208 212 214 218 210 223 221 218 222 225 221 228 226 242 252 263 271 275 286 290 277 270 278 270 281 288
177 210 195 269 114 146 141 153 140 155 138 117 167 193 233 270 297 292 264 258 253 248 249 251 253 256 252 247 238 234 256 262 266 272 270 263 259 256 254 250 245 237 228 218 221 229 228 231 233 229 222 224 231 226 223 223 224 225 227 221 226 208 209 222 217 201 213 214 223 227 226 229 232 242 249 261 270 276 281 289 285 283 285 276 275
119 103 124 123 107 109 119 126 143 149 170 168 179 165 194 229 262 291 325 331 296 269 264 263 264 263 262 266 269 262 237 223 249 263 268 267 264 263 258 255 250 243 233 227 223 228 224 230 236 234 221 226 227 219 219 216 218 220 215 217 222 209 208 216 201 194 204 213 206 223 226 234 234 238 244 256 264 271 276 278 280 277 277 287 287
79 98 119 133 113 105 125 148 148 173 172 164 173 173 207 200 221 261 314 319 335 340 326 297 281 276 275 276 273 274 279 273 264 260 259 264 266 264 260 257 253 246 239 231 229 233 227 227 233 234 231 225 222 216 219 218 215 218 216 220 223 218 214 158 168 208 204 215 216 222 223 229 225 232 250 252 254 257 268 271 278 281 280 277 288
57 54 64 78 99 121 134 126 137 139 133 160 171 181 198 193 173 182 209 234 269 292 300 324 339 357 4 1 1 344 340 339 335 336 322 280 263 260 262 260 255 258 257 259 248 244 241 237 234 229 225 224 220 212 219 215 208 209 213 215 216 212 207 192 207 203 209 208 215 221 223 228 232 226 231 243 259 268 266 272 268 264 271 281 285
62 62 52 58 63 64 77 95 120 131 152 160 148 158 137 145 154 175 143 156 184 247 299 299 293 317 350 9 1 0 353 351 348 346 342 350 353 356 341 301 294 284 270 269 272 269 269 264 261 245 223 227 225 222 222 218 212 210 211 207 208 204 205 209 210 206 209 205 213 218 218 221 224 229 231 240 243 253 259 263 270 270 269 269 274
69 65 57 52 60 67 64 59 67 90 91 82 94 85 75 75 74 71 77 83 116 43 238 304 346 333 2 16 16 355 349 348 343 345 354 356 0 17 5 356 338 328 327 323 328 319 304 306 312 297 284 248 235 224 219 222 216 212 212 209 204 203 209 207 208 194 199 206 214 213 217 224 219 221 212 240 255 252 256 259 264 270 274 281 289
78 81 82 75 70 68 65 60 60 66 69 75 76 94 85 82 83 97 110 97 114 124 26 355 30 31 352 319 4 0 345 340 352 3 10 11 11 8 358 353 341 325 315 320 324 335 326 322 329 317 300 280 259 242 227 225 214 210 209 209 205 213 215 212 211 198 202 209 216 215 211 218 212 220 221 228 243 255 262 261 263 272 279 281 276
68 78 79 79 82 82 85 82 72 79 77 75 80 97 102 103 98 92 94 102 90 88 92 71 62 53 343 334 343 339 14 359 13 358 353 352 351 355 350 346 342 335 331 330 333 327 323 318 319 326 316 310 305 290 276 266 254 245 232 216 215 208 219 208 206 210 207 211 218 213 205 219 219 218 216 224 247 247 257 261 264 262 270 274 273
83 76 79 85 74 83 86 94 97 93 102 104 89 98 97 103 122 131 124 105 92 98 111 76 42 20 358 357 308 311 347 337 4 346 345 340 348 350 355 344 340 332 325 322 324 319 313 314 318 319 317 310 300 292 279 271 261 243 224 218 212 218 217 214 219 209 217 212 217 217 216 224 222 215 219 224 237 248 254 258 255 263 274 284 287
91 89 90 95 112 102 93 91 91 103 96 94 107 97 107 111 114 101 98 94 96 74 49 47 45 6 351 333 332 342 51 36 25 12 5 2 353 355 344 347 340 339 337 335 329 330 327 325 327 319 313 307 294 284 276 265 256 244 229 231 226 231 225 222 219 221 221 214 214 216 221 220 219 211 234 238 238 246 247 255 274 281 275 272 277
97 90 86 77 83 92 90 80 81 75 83 87 81 96 95 92 92 90 79 76 58 59 52 24 16 358 339 339 345 359 45 17 17 358 348 346 342 332 327 329 324 325 327 327 324 317 317 313 312 313 308 307 303 287 277 266 253 246 247 243 240 240 238 236 229 231 222 221 220 221 228 221 220 220 234 243 236 236 258 268 261 261 266 273 281
101 95 92 84 79 78 88 86 85 80 69 74 74 75 83 83 76 79 72 61 57 52 50 354 327 344 344 343 350 0 24 356 350 342 327 324 307 310 306 302 300 302 301 298 298 294 298 297 297 296 294 288 290 293 286 280 270 258 254 244 241 240 237 240 232 229 218 220 226 229 227 229 235 237 240 249 252 254 252 257 268 271 272 277 268
91 87 82 81 80 76 77 90 76 81 87 87 82 76 76 74 68 67 73 58 49 28 21 310 306 333 319 336 353 1 347 337 326 317 314 313 312 304 302 296 301 299 300 295 296 297 296 295 291 288 281 280 271 266 262 260 258 249 240 238 240 236 234 231 228 226 213 213 223 227 232 228 232 232 238 244 236 244 254 253 256 260 268 262 270
92 94 93 84 77 81 64 63 78 72 71 70 63 51 46 59 67 62 75 70 356 1 313 288 310 313 319 327 340 334 316 317 316 319 314 306 300 294 291 291 289 285 287 287 287 293 289 286 288 291 292 287 281 275 271 263 250 237 236 230 234 238 233 227 226 218 197 199 220 224 226 221 230 228 237 241 242 243 249 245 245 262 273 281 281
98 99 96 96 87 81 76 61 61 69 72 75 81 56 43 56 71 83 109 123 213 250 275 291 296 297 308 312 312 313 306 305 300 288 282 285 278 277 275 275 275 276 273 276 282 283 279 278 280 285 286 286 290 284 277 270 261 245 241 234 234 241 243 237 196 169 187 200 212 216 225 225 232 224 235 237 237 241 241 245 242 248 254 270 273
90 94 97 101 106 100 98 100 89 86 85 70 84 88 77 71 104 91 122 265 262 262 301 293 307 299 300 293 290 284 281 279 276 281 274 270 272 273 277 277 281 281 282 278 275 276 282 282 279 274 277 279 281 281 278 268 260 252 242 239 242 247 252 241 215 215 211 206 203 199 215 221 235 233 243 247 247 242 250 253 248 258 255 258 260
96 97 103 111 111 109 105 98 98 93 95 106 120 152 190 193 227 215 270 285 296 293 286 288 280 273 275 274 261 263 265 267 267 268 272 274 273 278 282 286 287 285 291 293 292 288 283 282 281 278 275 278 276 277 274 270 263 256 247 239 236 237 235 231 223 224 220 208 198 209 209 219 228 232 235 233 238 239 245 252 252 253 255 259 262
94 101 104 102 107 124 134 130 132 144 173 176 187 254 259 276 270 263 268 264 266 262 253 261 270 264 255 259 259 261 259 267 270 277 275 276 280 283 283 281 285 288 293 293 295 292 290 284 281 276 273 272 274 273 276 276 272 268 261 250 240 241 240 235 229 227 211 204 206 208 212 214 226 230 233 234 238 235 242 249 252 254 258 258 261
92 97 103 104 111 123 145 146 153 165 181 169 187 251 277 267 279 275 267 268 271 267 263 252 253 255 255 268 274 271 272 273 276 277 282 283 284 280 284 285 286 284 284 282 286 286 284 282 278 277 273 270 269 270 269 271 273 269 272 266 263 257 248 244 243 234 223 208 209 201 205 217 219 227 230 233 236 240 245 249 248 251 253 257 258
85 96 96 113 134 138 134 145 212 226 212 224 240 249 257 262 259 258 264 261 260 264 264 258 256 261 261 254 260 270 273 272 268 270 275 279 280 282 281 283 284 284 282 280 278 279 275 277 277 274 270 271 268 268 267 264 265 264 263 265 265 260 256 250 244 241 238 227 203 199 205 213 218 226 231 231 230 234 239 245 247 250 255 252 253